TimeAST,TemperatureF,Dew PointF,Humidity,Sea Level PressureIn,VisibilityMPH,Wind Direction,Wind SpeedMPH,Gust SpeedMPH,PrecipitationIn,Events,Conditions,WindDirDegrees,DateUTC
12:00 AM,80.6,71.6,74,29.86,6.2,Variable,3.5,-,N/A,,Partly Cloudy,0,2013-11-17 04:00:00
1:00 AM,78.8,73.4,83,29.83,6.2,NNE,8.1,-,N/A,,Partly Cloudy,30,2013-11-17 05:00:00
2:00 AM,79,72,75,29.83,28,NNE,8.1,,,,Partly Cloudy,30,2013-11-17 06:00:00
2:00 AM,78.8,73.4,83,29.83,6.2,NNE,8.1,-,N/A,,Partly Cloudy,30,2013-11-17 06:00:00
3:00 AM,78.8,71.6,78,29.80,6.2,NNE,10.4,-,N/A,,Partly Cloudy,30,2013-11-17 07:00:00
4:00 AM,80.6,71.6,74,29.80,6.2,NE,11.5,-,N/A,,Partly Cloudy,40,2013-11-17 08:00:00
5:00 AM,80,71,66,29.81,28,NE,10.4,,,,Partly Cloudy,40,2013-11-17 09:00:00
5:00 AM,80.6,69.8,70,29.80,6.2,NE,10.4,-,N/A,,Partly Cloudy,40,2013-11-17 09:00:00
6:00 AM,78.8,71.6,78,29.80,6.2,NNE,8.1,-,N/A,,Partly Cloudy,30,2013-11-17 10:00:00
7:00 AM,80.6,71.6,74,29.83,6.2,NNE,8.1,-,N/A,,Partly Cloudy,30,2013-11-17 11:00:00
8:00 AM,82,69,58,29.87,37,NNE,8.1,,,,Partly Cloudy,20,2013-11-17 12:00:00
8:00 AM,82.4,69.8,66,29.86,6.2,NNE,8.1,-,N/A,,Scattered Clouds,20,2013-11-17 12:00:00
9:00 AM,80.6,64.4,58,29.89,6.2,NNE,10.4,-,N/A,,Scattered Clouds,20,2013-11-17 13:00:00
10:00 AM,84.2,64.4,51,29.89,6.2,NNE,11.5,-,N/A,,Partly Cloudy,30,2013-11-17 14:00:00
11:00 AM,84,65,44,29.87,37,NE,13.8,,,,Scattered Clouds,40,2013-11-17 15:00:00
11:00 AM,84.2,66.2,55,29.86,6.2,NE,13.8,-,N/A,,Partly Cloudy,40,2013-11-17 15:00:00
12:00 PM,84.2,68.0,58,29.83,6.2,NE,12.7,-,N/A,,Partly Cloudy,50,2013-11-17 16:00:00
1:00 PM,84.2,68.0,58,29.80,6.2,ENE,9.2,-,N/A,,Partly Cloudy,60,2013-11-17 17:00:00
2:00 PM,85,69,49,,37,NE,11.5,,,,,50,2013-11-17 18:00:00
2:00 PM,84.2,68.0,58,29.80,6.2,NE,11.5,-,N/A,,Scattered Clouds,50,2013-11-17 18:00:00
3:00 PM,84.2,68.0,58,29.80,6.2,North,8.1,-,N/A,,Scattered Clouds,350,2013-11-17 19:00:00
4:00 PM,82.4,68.0,62,10.08,6.2,NNE,6.9,-,N/A,,Partly Cloudy,30,2013-11-17 20:00:00
5:00 PM,82,69,55,29.79,37,NNE,5.8,,,,Scattered Clouds,20,2013-11-17 21:00:00
5:00 PM,82.4,68.0,62,29.77,6.2,NNE,5.8,-,N/A,,Partly Cloudy,20,2013-11-17 21:00:00
6:00 PM,80.6,68.0,65,29.80,6.2,NNE,6.9,-,N/A,,Partly Cloudy,20,2013-11-17 22:00:00
7:00 PM,80.6,68.0,65,29.80,6.2,NNE,5.8,-,N/A,,Partly Cloudy,20,2013-11-17 23:00:00
8:00 PM,80,69,63,29.81,28,NNE,6.9,,,,Scattered Clouds,30,2013-11-18 00:00:00
8:00 PM,80.6,69.8,70,29.80,6.2,NNE,6.9,-,N/A,,Partly Cloudy,30,2013-11-18 00:00:00
9:00 PM,78.8,69.8,74,29.80,6.2,Variable,3.5,-,N/A,,Partly Cloudy,0,2013-11-18 01:00:00
10:00 PM,78.8,71.6,78,29.80,6.2,NE,4.6,-,N/A,,Mostly Cloudy,40,2013-11-18 02:00:00
11:00 PM,77,71,76,29.82,12,NE,6.9,,,Rain,Light Rain Showers,50,2013-11-18 03:00:00
11:00 PM,77.0,71.6,83,29.80,6.2,NE,6.9,-,N/A,Rain,Light Rain Showers,50,2013-11-18 03:00:00